Showing default

AE3VA, 64563

Orbit data source: Space-Track

AE3VA, 64563 is a payload satellite owned by ArkEdge (JP) in SSO that was launched on Mon, 23 Jun 2025 UTC via an FALCON 9 launch vehicle from the Air Force Western Test Range (AFWTR). Payload-class satellites include a variety of spacecraft equipped with specific instruments for various scientific and technological missions. These include communications satellites like Starlink; space stations such as the ISS; scientific satellites like the Hubble; Earth observation satellites from companies like Planet Labs, Umbra, and HawkEye 360; GPS; miniature CubeSats for education and research; and military/defense satellites.

Loading next visibility...
Identifier
64563, 2025-135AM
Orbit
SSO
Country
Flag of JPJP / JPN
Related business
Manufacturer
ArkEdge
Mission
Operational Commercial Communications
Bus & Motor
CUBESAT 6U, Unknown motor
Mass
~10 kg wet, ~10 kg dry
Launch date (UTC)
2025-06-23 (7 months ago)
Launch vehicle
FALCON 9
Launch site
Air Force Western Test Range (AFWTR)
Object type
Payload
Rocket body
Debris
Shape & HBR
Box + 2 Pan, 0.1 m
Radar Cross Section
0.080 m², Medium (>0.1 m² and < 1m²)

Expand to show TLE details & history
Last TLE update: 5 hours ago

TLE from 5 hours ago
0 AE3VA
1 64563U 25135AM  26036.28278436  .00012890  00000-0  11758-2 0  9991
2 64563  97.7557 152.3040 0002476  14.8481 345.2812 14.95222726 34211
Epoch: 2026-02-05T06:47Z
TLE epoch observation values (Epoch: 2026-02-05T06:47:12.568Z)
Latitude
-0.00003°
Longitude
-84.9356°
Altitude
583.061 km
Speed
7.57 km/s
True Right ascension
10h 09m 12s
True Declination
0° 00' 00"
Sunlit
Object was in full shadow at epoch
Visualization orbit readout
Latitude
Unknown
Longitude
Unknown
Altitude
Unknown
Speed
Unknown
Apparent Right ascension
Unknown
Apparent Declination
Unknown
Sunlit
N/A
Visualization observer readout
Local Sidereal Time
14:08:09
Azimuth
Unknown
Elevation
Unknown
Doppler factor
Unknown
Orbital elements
Apogee altitude
580.418 km
Perigee altitude
576.973 km
Semi-major axis
6,956.833 km
Eccentricity
0.00025
Inclination
97.7557°
RAAN
152.304°
Arg. of periapsis
14.8481°
True anomaly
345.27399°
Mean anomaly
345.2812°
Eccentric anomaly
345.27759°
Mean motion
3.74047 °/min
Orbital period
96.24 mins
BSTAR
0.0011758
Loading maneuver chart data...
Computing Atmospheric mass density...
Loading historical data...
Loading historical data...
Loading historical data...
Loading historical data...
Loading historical data...
Loading historical data...
Loading historical data...

Documentation

Showing up to 5 results
|